Regional Weather Roundup
Issued by NWS Grand Forks, ND

Home | Current Version | Previous Version | Graphics & Text | Print | Product List | Glossary On
Versions: 1 2 3 4 5 6 7 8 9 10 11 12 13 14 15 16 17 18 19 20 21 22 23 24 25 26 27 28 29 30 31 32 33 34 35 36 37 38 39 40 41 42 43 44 45 46 47 48 49 50
000
ASUS43 KFGF 041010
RWRFGF
PRAIRIE TO PINES  WEATHER ROUNDUP
NATIONAL WEATHER SERVICE EASTERN NORTH DAKOTA/GRAND FORKS ND
500 AM CDT WED MAY 04 2016

 **SATELLITE DATA USED TO AUGMENT SKY COVER AT AUTOMATED STATIONS**
 *****  WEATHER ACROSS EASTERN NORTH DAKOTA  *****

CITY           SKY/WX    TMP DP  RH WIND       PRES   REMARKS
GRAND FORKS    CLEAR     34  29  82 NW7       30.05S
GRAND FRKS AFB CLEAR     36  30  80 N6        30.06R
DEVILS LAKE    CLEAR     35  31  85 NW3       30.09R
FARGO          CLEAR     38  28  67 NW8       30.04R
WAHPETON ARPT  SUNNY     43  30  61 N9        30.03S
$$

 ***** WEATHER ACROSS CENTRAL AND WESTERN NORTH DAKOTA  *****

CITY           SKY/WX    TMP DP  RH WIND       PRES   REMARKS
BISMARCK       CLEAR     38  32  79 CALM      30.11S
MINOT          PTCLDY    45  30  55 SE5       30.08S
JAMESTOWN      CLEAR     33  29  85 NW7       30.08R
MINOT AFB      CLEAR     41  31  66 S5        30.07S
GARRISON         N/A     42  32  67 CALM      30.09S
WILLISTON      CLEAR     47  40  76 SW3       30.07S
DICKINSON      CLEAR     41  33  73 S8        30.09S
HETTINGER      CLEAR     36  32  85 W3        30.13S
$$

 *****  OTHER AIRPORT OBSERVATIONS IN OUR AREA  *****

CITY           SKY/WX    TMP DP  RH WIND       PRES   REMARKS
WALHALLA       FAIR      32  32 100 CALM      30.08R
GRAFTON AIRPOR FAIR      39  34  81 NW8       30.08S
VALLEY CITY AR FAIR      36  36 100 NW8       30.08S
CANDO          FAIR      32  28  86 NW3       30.11S
CAVALIER APRT  FAIR      37  32  81 NW3       30.07R
GWINNER        FAIR      43  32  65 NW10      30.05S
SHEYENNE NWR     N/A     39  29  68 N7        29.95S
ROLLA          FAIR      32  27  80 W6        30.09S
 ***** THE ABOVE OBSERVATIONS ARE NON NWS ARE NOT QUALITY
       CONTROLLED AND MAY MIS-REPORT RAIN FOR SNOW...
$$

  *****  WEATHER ACROSS NORTHERN MINNESOTA  *****

CITY           SKY/WX    TMP DP  RH WIND       PRES   REMARKS
FLAG ISLAND    CLEAR     43  36  75 N10       30.02S
WARROAD        CLEAR     37  34  87 NW5       30.04R
ROSEAU         CLEAR     37  34  87 NW5       30.04R
HALLOCK        CLEAR     36  30  80 N5        30.05S
THF RVR FALLS  CLEAR     39  30  70 N7        30.04S
BAUDETTE       CLEAR     39  33  79 N5        30.01R
WASKISH        PTCLDY    39  34  81 N6        30.00S
CROOKSTON      CLEAR     36  28  75 CALM      30.05S
STEPHEN NDAWN    N/A     32  27  80 NW3         N/A
GREENBUSH NDAW   N/A     34  32  93 CALM        N/A
$$
  *****  WEATHER ACROSS CENTRAL AND WEST MINNESOTA  *****

CITY           SKY/WX    TMP DP  RH WIND       PRES   REMARKS
FOSSTON        CLEAR     34  28  80 CALM      30.03S
BEMIDJI        CLEAR     34  31  89 NW5       30.00R
PARK RAPIDS    CLEAR     37  31  78 N6        29.99R
ELBOW LAKE     FAIR      40  35  80 NW5       30.01S
WADENA         CLEAR     37  30  75 NW5       29.99S
DETROIT LAKES  CLEAR     37  34  87 NW6       30.02S
MOORHEAD       CLEAR     39  28  65 N8        30.04S
FERGUS FALLS   CLEAR     43  36  75 CALM      30.00R
MORRIS MN      CLEAR     37  32  81 NW7       30.00R
STAPLES        CLEAR     37  32  81 NW5       29.98S
$$
  *****  WEATHER ELSEWHERE ACROSS MINNESOTA  *****

CITY           SKY/WX    TMP DP  RH WIND       PRES   REMARKS
DULUTH         CLEAR     40  31  70 N7        29.91R
INTRNTL FALLS  CLEAR     36  30  79 NW7       29.97S
ELY            CLEAR     36  30  80 NW3       29.91S
CLOQUET        CLEAR     39  28  65 NW5       29.92S
WHEATON        CLEAR     43  34  70 NW6       30.04S
BRAINERD       CLEAR     38  31  76 N6        29.97R
HIBBING        CLEAR     36  30  79 N9        29.93S
ALEXANDRIA     CLEAR     43  34  70 NW6       30.00R
SAINT CLOUD    CLEAR     41  32  70 NW6       29.96R
MINNEAPOLIS    CLEAR     47  32  56 N5        29.93R
$$

  *****  WEATHER ACROSS SOUTH DAKOTA  *****

CITY           SKY/WX    TMP DP  RH WIND       PRES   REMARKS
SIOUX FALLS    CLEAR     44  33  65 N9        30.00R
BROOKINGS      CLEAR     41  32  70 N3        30.00
WATERTOWN      CLEAR     38  30  73 N7        30.02R
HURON          CLEAR     37  32  82 NW9       30.05R
SISSETON         N/A     41  31  67 NW10      30.03R
ABERDEEN       CLEAR     37  30  75 NW9       30.07R
MITCHELL       CLEAR     42  36  79 NW9       30.05R
PIERRE         CLEAR     44  30  57 N5        30.10R
MOBRIDGE       CLEAR     40  33  76 NE3       30.08R
RAPID CITY     CLEAR     47  37  68 NW10      30.13S
$$

  *****  SOME WEATHER IN NEARBY STATES *****

CITY           SKY/WX    TMP DP  RH WIND       PRES   REMARKS
GLASGOW MT     CLEAR     51  39  63 E10       30.03S
GREAT FALLS MT CLEAR     50  37  61 S12       30.01F
CHEYENNE WY    CLEAR     40  32  73 NW9       30.26S
SCOTTSBLUFF NE CLEAR     44  39  82 NW10      30.18S
OMAHA NE       CLEAR     49  39  68 N7        29.93R
DES MOINES IA  PTCLDY    53  34  48 N9        29.83R
DAVENPORT IA   FOG       44  43  96 N7        29.74R VSB 1/4
CHICAGO IL     LGT RAIN  49  47  93 NE9       29.65R
EAU CLAIRE WI  CLEAR     40  34  79 NW6       29.86S
LA CROSSE WI   PTCLDY    47  38  71 N12       29.84R
$$

  *****  SOME NATIONAL WEATHER *****

CITY           SKY/WX    TMP DP  RH WIND       PRES   REMARKS
LA GUARDIA NY  CLOUDY    51  48  89 NE9       29.80S
RALEIGH NC     PTCLDY    58  55  90 CALM      29.70S
ATLANTA GA     CLEAR     55  49  80 NW8       29.82F
NEW ORLEANS LA MOCLDY    65  51  60 N10       29.94F
OKLAHOMA CITY  CLEAR     51  48  89 W5        30.03S
ALBUQUERQUE NM CLEAR     57  28  33 NE7       30.28R
SALT LAKE CITY PTCLDY    54  36  50 S10       30.13F
LOS ANGELES CA MOCLDY    57  54  89 W3        29.95F
BOISE ID       PTCLDY    59  35  40 SE5       29.98F
SEATTLE WA     CLOUDY    55  45  68 NE9       30.10S
$$

*** WEATHER ACROSS MANITOBA...SASKATCHEWAN AND ONTARIO ***
                ***ONTARIO***

CITY           SKY/WX    TMP DP  RH WIND       PRES   REMARKS
GERALDTON      LGT SNOW  30  30 100 N8        29.83R FOG     WCI  23
THUNDER BAY    MOCLDY    37  28  70 N8        29.88R
SIOUX LOOKOUT  PTCLDY    30  25  80 N7        29.98R WCI  23
TORONTO        PTCLDY    43  37  81 SE6       29.72S
BIG TROUT LK   CLOUDY    21  18  86 N5        30.05R WCI  15
PICKLE LAKE    NOT AVBL
DRYDEN         CLEAR     34  27  75 N7        29.98R
KENORA         CLEAR     36  28  75 N5        30.02R
$$
                *** MANITOBA***

CITY           SKY/WX    TMP DP  RH WIND       PRES   REMARKS
BRANDON        PTCLDY    32  25  74 NW3       30.09R
DAUPHIN        CLEAR     36  28  75 W6        30.05F
ISLAND LAKE    NOT AVBL
PILOT MOUND      N/A     36  30  80 NW5         N/A
THE PAS        CLOUDY    39  32  75 SE9       29.96F
THOMPSON       PTCLDY    34  21  60 S3        30.01F
WINNIPEG       CLEAR     30  28  93 NW5       30.07S
LYNN LAKE      MOCLDY    41  25  52 S7        29.89F
CHURCHILL      MOCLDY    23  21  93 S9        30.03F WCI  13
GILLAM         PTCLDY    23  19  86 S7        30.06F WCI  15
$$
                ***SASKATCHEWAN***

CITY           SKY/WX    TMP DP  RH WIND       PRES   REMARKS
ESTEVAN        CLEAR     39  32  75 E7        30.05S
KINDERSLEY     CLEAR     54  41  62 S12       29.89F
LLOYDMINSTER   CLEAR     54  41  62 S12       29.81F
PRINCE ALBERT  PTCLDY    46  41  81 NE2       29.86F
REGINA         CLEAR     45  34  65 SE10      30.00F
YORKTON        CLEAR     46  34  61 S10       30.01S
N. BATTLEFORD  CLEAR     59  39  47 SW5       29.87F
LA RONGE       MOCLDY    48  34  57 S3        29.80F
SASKATOON      PTCLDY    54  41  62 S9        29.91F
SWIFT CURRENT  CLEAR     54  39  58 S14       29.97F
$$
NOTE: THESE ARE AUTOMATED STATIONS WITH LIMITED QUALITY CONTROL
      "FAIR" INDICATES FEW OR NO CLOUDS BELOW 12,000 FEET WITH NO
      SIGNIFICANT WEATHER AND/OR OBSTRUCTIONS TO VISIBILITY.
      SKY/WX - SKY CONDITION AND SIGNIFICANT WEATHER.
      TMP - AIR TEMPERATURE.    DP   - DEWPOINT TEMPERATURE.
      RH  - RELATIVE HUMIDITY.  PRES - PRESSURE.
      HX  - HEAT INDEX.         WCI  - WIND CHILL INDEX.
$



USA.gov is the U.S. government's official web portal to all federal, state and local government web resources and services.